Regional Weather Roundup
Issued by NWS

Home | Current Version | Previous Version | Graphics & Text | Print | Product List | Glossary On
Versions: 1 2 3 4 5 6 7 8 9 10 11 12 13 14 15 16 17 18 19 20 21 22 23 24 25 26 27
000
ASUS45 KBOI 220710
RWRID
WEATHER ROUNDUP FOR IDAHO
NATIONAL WEATHER SERVICE BOISE ID
100 AM MDT WED OCT 22 2014

NOTE: "FAIR" INDICATES FEW OR NO CLOUDS BELOW 12000 FEET
WITH NO SIGNIFICANT WEATHER AND/OR OBSTRUCTIONS TO VISIBILITY

IDZ012-014-220800-
SOUTHWEST IDAHO


CITY           SKY/WX    TMP DP  RH WIND       PRES   REMARKS
BOISE          CLEAR     46  39  76 SE9       30.07R
CALDWELL       CLEAR     45  32  61 SE6       30.09S
MOUNTAIN HOME  CLEAR     40  40  99 E7        30.08S
$$

IDZ016-017-220800-
SOUTHCENTRAL IDAHO


CITY           SKY/WX    TMP DP  RH WIND       PRES   REMARKS
BURLEY         CLEAR     37  31  78 SW12      30.10S WCI  29
JEROME         CLEAR     40  32  73 SE5       30.10F
TWIN FALLS     CLEAR     38  30  73 S10       30.10S WCI  31
$$

IDZ019>023-220800-
SOUTHEAST IDAHO


CITY           SKY/WX    TMP DP  RH WIND       PRES   REMARKS
IDAHO FALLS    PTCLDY    43  33  68 S9        30.11R
POCATELLO      CLEAR     39  32  76 S9        30.12S WCI  33
REXBURG        CLOUDY    41  34  76 S9        30.10S
$$

IDZ006-010-011-018-031-032-220800-
CENTRAL IDAHO MOUNTAINS


CITY           SKY/WX    TMP DP  RH WIND       PRES   REMARKS
MCCALL         MOCLDY    34  33  96 CALM      30.08R
HAILEY         CLEAR     36  28  75 N8        30.12S WCI  29
STANLEY          N/A     30  28  92 CALM      30.13S
SALMON         MOCLDY   N/A N/A N/A MISG        N/A
CHALLIS        PTCLDY    35  32  88 CALM      30.10F
$$

IDZ002-004-006-007-026-220800-
NORTHERN IDAHO


CITY           SKY/WX    TMP DP  RH WIND       PRES   REMARKS
LEWISTON       CLEAR     47  38  71 SE3       30.00S
LOWELL           N/A     47  44  90 SW5       30.09S
COEUR D`ALENE  PTCLDY    46  39  76 S5        29.98S
MULLAN PASS    MOCLDY    34  32  92 SW6       30.01S WCI  29
$$



USA.gov is the U.S. government's official web portal to all federal, state and local government web resources and services.